Year,Month,Day,Hour,Minute,Value (Times are PST for windspeed in km/hr)
2015,09,22,00,00,4.70
2015,09,22,00,01,4.50
2015,09,22,00,02,4.40
2015,09,22,00,03,4.10
2015,09,22,00,04,4.60
2015,09,22,00,05,4.90
2015,09,22,00,06,5.40
2015,09,22,00,07,6.00
2015,09,22,00,08,6.30
2015,09,22,00,09,6.80
2015,09,22,00,10,6.00
2015,09,22,00,11,5.70
2015,09,22,00,12,4.70
2015,09,22,00,13,4.80
2015,09,22,00,14,4.90
2015,09,22,00,15,4.70
2015,09,22,00,16,4.90
2015,09,22,00,17,5.90
2015,09,22,00,18,6.10
2015,09,22,00,19,6.70
2015,09,22,00,20,5.90
2015,09,22,00,21,5.90
2015,09,22,00,22,5.10
2015,09,22,00,23,6.00
2015,09,22,00,24,5.90
2015,09,22,00,25,6.10
2015,09,22,00,26,5.60
2015,09,22,00,27,4.90
2015,09,22,00,28,4.60
2015,09,22,00,29,4.60
2015,09,22,00,30,4.80
2015,09,22,00,31,4.50
2015,09,22,00,32,4.70
2015,09,22,00,33,4.90
2015,09,22,00,34,5.00
2015,09,22,00,35,5.30
2015,09,22,00,36,5.10
2015,09,22,00,37,4.90
2015,09,22,00,38,4.70
2015,09,22,00,39,4.50
2015,09,22,00,40,5.60
2015,09,22,00,41,4.60
2015,09,22,00,42,4.40
2015,09,22,00,43,4.40
2015,09,22,00,44,4.00
2015,09,22,00,45,3.40
2015,09,22,00,46,4.10
2015,09,22,00,47,5.30
2015,09,22,00,48,6.40
2015,09,22,00,49,5.80
2015,09,22,00,50,5.40
2015,09,22,00,51,5.70
2015,09,22,00,52,6.40
2015,09,22,00,53,6.80
2015,09,22,00,54,6.20
2015,09,22,00,55,6.70
2015,09,22,00,56,6.80
2015,09,22,00,57,6.30
2015,09,22,00,58,5.60
2015,09,22,00,59,5.40
2015,09,22,01,00,6.40
2015,09,22,01,01,6.30
2015,09,22,01,02,6.00
2015,09,22,01,03,5.70
2015,09,22,01,04,5.70
2015,09,22,01,05,4.80
2015,09,22,01,06,4.10
2015,09,22,01,07,4.10
2015,09,22,01,08,4.40
2015,09,22,01,09,4.70
2015,09,22,01,10,4.50
2015,09,22,01,11,4.20
2015,09,22,01,12,4.30
2015,09,22,01,13,5.10
2015,09,22,01,14,5.80
2015,09,22,01,15,5.20
2015,09,22,01,16,4.50
2015,09,22,01,17,4.10
2015,09,22,01,18,2.60
2015,09,22,01,19,2.80
2015,09,22,01,20,5.10
2015,09,22,01,21,6.40
2015,09,22,01,22,5.00
2015,09,22,01,23,5.10
2015,09,22,01,24,5.60
2015,09,22,01,25,5.90
2015,09,22,01,26,6.80
2015,09,22,01,27,6.20
2015,09,22,01,28,5.80
2015,09,22,01,29,5.80
2015,09,22,01,30,5.10
2015,09,22,01,31,5.20
2015,09,22,01,32,5.20
2015,09,22,01,33,5.20
2015,09,22,01,34,6.40
2015,09,22,01,35,6.60
2015,09,22,01,36,7.30
2015,09,22,01,37,7.10
2015,09,22,01,38,6.50
2015,09,22,01,39,6.10
2015,09,22,01,40,5.70
2015,09,22,01,41,6.80
2015,09,22,01,42,6.80
2015,09,22,01,43,6.60
2015,09,22,01,44,6.40
2015,09,22,01,45,6.50
2015,09,22,01,46,6.50
2015,09,22,01,47,6.10
2015,09,22,01,48,6.50
2015,09,22,01,49,6.10
2015,09,22,01,50,5.60
2015,09,22,01,51,6.40
2015,09,22,01,52,6.50
2015,09,22,01,53,6.70
2015,09,22,01,54,6.40
2015,09,22,01,55,6.10
2015,09,22,01,56,5.60
2015,09,22,01,57,4.70
2015,09,22,01,58,4.30
2015,09,22,01,59,5.60
2015,09,22,02,00,6.40
2015,09,22,02,01,6.40
2015,09,22,02,02,6.50
2015,09,22,02,03,6.20
2015,09,22,02,04,6.00
2015,09,22,02,05,6.20
2015,09,22,02,06,6.10
2015,09,22,02,07,6.30
2015,09,22,02,08,4.70
2015,09,22,02,09,4.70
2015,09,22,02,10,5.60
2015,09,22,02,11,6.00
2015,09,22,02,12,6.40
2015,09,22,02,13,6.10
2015,09,22,02,14,5.90
2015,09,22,02,15,5.00
2015,09,22,02,16,4.00
2015,09,22,02,17,4.50
2015,09,22,02,18,4.70
2015,09,22,02,19,4.90
2015,09,22,02,20,5.30
2015,09,22,02,21,4.60
2015,09,22,02,22,4.30
2015,09,22,02,23,3.90
2015,09,22,02,24,3.80
2015,09,22,02,25,4.40
2015,09,22,02,26,3.90
2015,09,22,02,27,4.10
2015,09,22,02,28,4.90
2015,09,22,02,29,4.70
2015,09,22,02,30,4.80
2015,09,22,02,31,4.90
2015,09,22,02,32,6.00
2015,09,22,02,33,5.50
2015,09,22,02,34,4.80
2015,09,22,02,35,4.80
2015,09,22,02,36,4.20
2015,09,22,02,37,4.10
2015,09,22,02,38,5.10
2015,09,22,02,39,6.00
2015,09,22,02,40,5.30
2015,09,22,02,41,5.80
2015,09,22,02,42,5.90
2015,09,22,02,43,6.20
2015,09,22,02,44,6.00
2015,09,22,02,45,6.10
2015,09,22,02,46,5.70
2015,09,22,02,47,5.50
2015,09,22,02,48,5.40
2015,09,22,02,49,5.60
2015,09,22,02,50,5.10
2015,09,22,02,51,5.60
2015,09,22,02,52,5.30
2015,09,22,02,53,5.40
2015,09,22,02,54,6.10
2015,09,22,02,55,5.90
2015,09,22,02,56,5.90
2015,09,22,02,57,5.90
2015,09,22,02,58,5.60
2015,09,22,02,59,4.80
2015,09,22,03,00,4.80
2015,09,22,03,01,5.00
2015,09,22,03,02,4.40
2015,09,22,03,03,4.70
2015,09,22,03,04,5.10
2015,09,22,03,05,3.10
2015,09,22,03,06,4.30
2015,09,22,03,07,3.90
2015,09,22,03,08,3.70
2015,09,22,03,09,4.80
2015,09,22,03,10,5.00
2015,09,22,03,11,4.10
2015,09,22,03,12,4.90
2015,09,22,03,13,4.10
2015,09,22,03,14,4.30
2015,09,22,03,15,4.20
2015,09,22,03,16,5.10
2015,09,22,03,17,5.10
2015,09,22,03,18,4.90
2015,09,22,03,19,4.90
2015,09,22,03,20,5.10
2015,09,22,03,21,5.80
2015,09,22,03,22,5.40
2015,09,22,03,23,5.30
2015,09,22,03,24,4.90
2015,09,22,03,25,4.90
2015,09,22,03,26,4.70
2015,09,22,03,27,4.30
2015,09,22,03,28,4.30
2015,09,22,03,29,4.40
2015,09,22,03,30,4.40
2015,09,22,03,31,3.80
2015,09,22,03,32,4.10
2015,09,22,03,33,3.90
2015,09,22,03,34,4.00
2015,09,22,03,35,4.40
2015,09,22,03,36,5.60
2015,09,22,03,37,6.00
2015,09,22,03,38,4.70
2015,09,22,03,39,5.10
2015,09,22,03,40,4.90
2015,09,22,03,41,5.10
2015,09,22,03,42,3.60
2015,09,22,03,43,3.60
2015,09,22,03,44,4.20
2015,09,22,03,45,4.20
2015,09,22,03,46,4.30
2015,09,22,03,47,4.50
2015,09,22,03,48,3.90
2015,09,22,03,49,3.90
2015,09,22,03,50,4.10
2015,09,22,03,51,3.50
2015,09,22,03,52,3.20
2015,09,22,03,53,3.70
2015,09,22,03,54,4.40
2015,09,22,03,55,4.90
2015,09,22,03,56,4.10
2015,09,22,03,57,4.00
2015,09,22,03,58,4.30
2015,09,22,03,59,5.20
2015,09,22,04,00,5.60
2015,09,22,04,01,5.80
2015,09,22,04,02,5.50
2015,09,22,04,03,3.50
2015,09,22,04,04,6.80
2015,09,22,04,05,7.00
2015,09,22,04,06,4.80
2015,09,22,04,07,4.80
2015,09,22,04,08,4.10
2015,09,22,04,09,3.00
2015,09,22,04,10,0.30
2015,09,22,04,11,0.00
2015,09,22,04,12,0.00
2015,09,22,04,13,0.00
2015,09,22,04,14,0.10
2015,09,22,04,15,3.90
2015,09,22,04,16,5.20
2015,09,22,04,17,5.10
2015,09,22,04,18,4.90
2015,09,22,04,19,5.50
2015,09,22,04,20,5.40
2015,09,22,04,21,5.20
2015,09,22,04,22,4.90
2015,09,22,04,23,5.50
2015,09,22,04,24,6.00
2015,09,22,04,25,6.00
2015,09,22,04,26,6.40
2015,09,22,04,27,6.40
2015,09,22,04,28,6.80
2015,09,22,04,29,5.40
2015,09,22,04,30,5.60
2015,09,22,04,31,5.40
2015,09,22,04,32,5.40
2015,09,22,04,33,5.70
2015,09,22,04,34,4.90
2015,09,22,04,35,6.30
2015,09,22,04,36,6.80
2015,09,22,04,37,5.70
2015,09,22,04,38,6.10
2015,09,22,04,39,5.30
2015,09,22,04,40,5.10
2015,09,22,04,41,5.50
2015,09,22,04,42,5.10
2015,09,22,04,43,5.80
2015,09,22,04,44,5.10
2015,09,22,04,45,5.20
2015,09,22,04,46,5.90
2015,09,22,04,47,5.50
2015,09,22,04,48,5.40
2015,09,22,04,49,5.10
2015,09,22,04,50,4.50
2015,09,22,04,51,5.10
2015,09,22,04,52,5.40
2015,09,22,04,53,2.20
2015,09,22,04,54,4.00
2015,09,22,04,55,4.40
2015,09,22,04,56,4.70
2015,09,22,04,57,4.70
2015,09,22,04,58,3.10
2015,09,22,04,59,4.50
2015,09,22,05,00,4.50
2015,09,22,05,01,4.70
2015,09,22,05,02,4.10
2015,09,22,05,03,5.10
2015,09,22,05,04,4.80
2015,09,22,05,05,4.70
2015,09,22,05,06,4.60
2015,09,22,05,07,4.70
2015,09,22,05,08,4.30
2015,09,22,05,09,4.30
2015,09,22,05,10,5.10
2015,09,22,05,11,5.90
2015,09,22,05,12,6.40
2015,09,22,05,13,7.10
2015,09,22,05,14,6.70
2015,09,22,05,15,6.40
2015,09,22,05,16,6.60
2015,09,22,05,17,6.10
2015,09,22,05,18,6.70
2015,09,22,05,19,5.40
2015,09,22,05,20,5.40
2015,09,22,05,21,5.60
2015,09,22,05,22,5.40
2015,09,22,05,23,5.60
2015,09,22,05,24,4.90
2015,09,22,05,25,5.40
2015,09,22,05,26,4.50
2015,09,22,05,27,3.90
2015,09,22,05,28,3.20
2015,09,22,05,29,4.50
2015,09,22,05,30,4.70
2015,09,22,05,31,4.30
2015,09,22,05,32,4.30
2015,09,22,05,33,3.70
2015,09,22,05,34,4.30
2015,09,22,05,35,3.10
2015,09,22,05,36,4.30
2015,09,22,05,37,3.50
2015,09,22,05,38,4.40
2015,09,22,05,39,5.10
2015,09,22,05,40,5.90
2015,09,22,05,41,4.60
2015,09,22,05,42,4.30
2015,09,22,05,43,4.70
2015,09,22,05,44,3.50
2015,09,22,05,45,3.80
2015,09,22,05,46,3.60
2015,09,22,05,47,5.10
2015,09,22,05,48,3.90
2015,09,22,05,49,4.70
2015,09,22,05,50,4.50
2015,09,22,05,51,3.80
2015,09,22,05,52,4.50
2015,09,22,05,53,4.90
2015,09,22,05,54,3.80
2015,09,22,05,55,3.30
2015,09,22,05,56,3.30
2015,09,22,05,57,3.60
2015,09,22,05,58,3.80
2015,09,22,05,59,3.80
2015,09,22,06,00,4.30
2015,09,22,06,01,4.10
2015,09,22,06,02,4.40
2015,09,22,06,03,3.40
2015,09,22,06,04,4.70
2015,09,22,06,05,4.30
2015,09,22,06,06,4.20
2015,09,22,06,07,4.10
2015,09,22,06,08,4.20
2015,09,22,06,09,3.90
2015,09,22,06,10,4.10
2015,09,22,06,11,5.60
2015,09,22,06,12,4.10
2015,09,22,06,13,5.00
2015,09,22,06,14,4.40
2015,09,22,06,15,4.00
2015,09,22,06,16,4.60
2015,09,22,06,17,4.50
2015,09,22,06,18,4.20
2015,09,22,06,19,4.20
2015,09,22,06,20,3.80
2015,09,22,06,21,4.30
2015,09,22,06,22,3.80
2015,09,22,06,23,3.90
2015,09,22,06,24,4.00
2015,09,22,06,25,3.70
2015,09,22,06,26,3.40
2015,09,22,06,27,4.10
2015,09,22,06,28,3.90
2015,09,22,06,29,4.10
2015,09,22,06,30,3.50
2015,09,22,06,31,4.40
2015,09,22,06,32,4.30
2015,09,22,06,33,5.00
2015,09,22,06,34,5.50
2015,09,22,06,35,5.80
2015,09,22,06,36,6.10
2015,09,22,06,37,5.80
2015,09,22,06,38,5.00
2015,09,22,06,39,6.00
2015,09,22,06,40,6.20
2015,09,22,06,41,6.40
2015,09,22,06,42,6.80
2015,09,22,06,43,7.20
2015,09,22,06,44,6.80
2015,09,22,06,45,6.20
2015,09,22,06,46,5.80
2015,09,22,06,47,5.60
2015,09,22,06,48,5.40
2015,09,22,06,49,6.20
2015,09,22,06,50,5.90
2015,09,22,06,51,5.80
2015,09,22,06,52,5.30
2015,09,22,06,53,5.60
2015,09,22,06,54,4.80
2015,09,22,06,55,4.70
2015,09,22,06,56,4.70
2015,09,22,06,57,4.70
2015,09,22,06,58,4.70
2015,09,22,06,59,4.70
2015,09,22,07,00,3.80
2015,09,22,07,01,5.20
2015,09,22,07,02,5.10
2015,09,22,07,03,5.20
2015,09,22,07,04,4.40
2015,09,22,07,05,4.50
2015,09,22,07,06,4.80
2015,09,22,07,07,4.60
2015,09,22,07,08,4.70
2015,09,22,07,09,4.40
2015,09,22,07,10,4.50
2015,09,22,07,11,4.50
2015,09,22,07,12,5.00
2015,09,22,07,13,4.30
2015,09,22,07,14,5.10
2015,09,22,07,15,4.90
2015,09,22,07,16,4.80
2015,09,22,07,17,4.30
2015,09,22,07,18,4.00
2015,09,22,07,19,4.70
2015,09,22,07,20,3.80
2015,09,22,07,21,3.90
2015,09,22,07,22,4.30
2015,09,22,07,23,4.30
2015,09,22,07,24,4.20
2015,09,22,07,25,4.30
2015,09,22,07,26,3.80
2015,09,22,07,27,4.10
2015,09,22,07,28,4.70
2015,09,22,07,29,4.70
2015,09,22,07,30,4.20
2015,09,22,07,31,3.80
2015,09,22,07,32,4.70
2015,09,22,07,33,5.10
2015,09,22,07,34,5.10
2015,09,22,07,35,6.00
2015,09,22,07,36,6.10
2015,09,22,07,37,6.30
2015,09,22,07,38,7.00
2015,09,22,07,39,6.00
2015,09,22,07,40,5.70
2015,09,22,07,41,5.20
2015,09,22,07,42,5.40
2015,09,22,07,43,5.60
2015,09,22,07,44,5.80
2015,09,22,07,45,5.80
2015,09,22,07,46,6.00
2015,09,22,07,47,6.20
2015,09,22,07,48,5.80
2015,09,22,07,49,6.20
2015,09,22,07,50,6.10
2015,09,22,07,51,5.70
2015,09,22,07,52,6.40
2015,09,22,07,53,6.10
2015,09,22,07,54,5.70
2015,09,22,07,55,4.60
2015,09,22,07,56,4.60
2015,09,22,07,57,5.40
2015,09,22,07,58,4.70
2015,09,22,07,59,5.40
2015,09,22,08,00,4.80
2015,09,22,08,01,4.80
2015,09,22,08,02,5.20
2015,09,22,08,03,5.20
2015,09,22,08,04,5.20
2015,09,22,08,05,4.00
2015,09,22,08,06,4.80
2015,09,22,08,07,5.30
2015,09,22,08,08,5.80
2015,09,22,08,09,5.50
2015,09,22,08,10,5.30
2015,09,22,08,11,4.90
2015,09,22,08,12,4.00
2015,09,22,08,13,3.90
2015,09,22,08,14,4.30
2015,09,22,08,15,3.50
2015,09,22,08,16,3.80
2015,09,22,08,17,4.00
2015,09,22,08,18,4.80
2015,09,22,08,19,4.00
2015,09,22,08,20,3.50
2015,09,22,08,21,3.10
2015,09,22,08,22,3.20
2015,09,22,08,23,2.70
2015,09,22,08,24,2.90
2015,09,22,08,25,1.20
2015,09,22,08,26,2.10
2015,09,22,08,27,1.40
2015,09,22,08,28,0.30
2015,09,22,08,29,1.20
2015,09,22,08,30,0.30
2015,09,22,08,31,0.00
2015,09,22,08,32,0.70
2015,09,22,08,33,0.00
2015,09,22,08,34,0.00
2015,09,22,08,35,0.00
2015,09,22,08,36,0.00
2015,09,22,08,37,0.00
2015,09,22,08,38,0.00
2015,09,22,08,39,0.00
2015,09,22,08,40,0.40
2015,09,22,08,41,1.70
2015,09,22,08,42,0.00
2015,09,22,08,43,0.00
2015,09,22,08,44,0.00
2015,09,22,08,45,0.00
2015,09,22,08,46,0.00
2015,09,22,08,47,0.00
2015,09,22,08,48,0.00
2015,09,22,08,49,0.00
2015,09,22,08,50,0.00
2015,09,22,08,51,0.00
2015,09,22,08,52,0.20
2015,09,22,08,53,1.30
2015,09,22,08,54,0.90
2015,09,22,08,55,4.70
2015,09,22,08,56,6.40
2015,09,22,08,57,5.70
2015,09,22,08,58,4.30
2015,09,22,08,59,4.60
2015,09,22,09,00,3.50
2015,09,22,09,01,4.60
2015,09,22,09,02,5.20
2015,09,22,09,03,6.80
2015,09,22,09,04,7.50
2015,09,22,09,05,6.70
2015,09,22,09,06,6.20
2015,09,22,09,07,6.50
2015,09,22,09,08,4.20
2015,09,22,09,09,4.30
2015,09,22,09,10,2.30
2015,09,22,09,11,1.90
2015,09,22,09,12,3.30
2015,09,22,09,13,2.80
2015,09,22,09,14,3.60
2015,09,22,09,15,7.80
2015,09,22,09,16,11.70
2015,09,22,09,17,10.30
2015,09,22,09,18,10.20
2015,09,22,09,19,7.40
2015,09,22,09,20,6.20
2015,09,22,09,21,6.80
2015,09,22,09,22,13.80
2015,09,22,09,23,13.60
2015,09,22,09,24,14.90
2015,09,22,09,25,14.70
2015,09,22,09,26,13.90
2015,09,22,09,27,15.10
2015,09,22,09,28,14.00
2015,09,22,09,29,11.30
2015,09,22,09,30,9.00
2015,09,22,09,31,14.10
2015,09,22,09,32,15.30
2015,09,22,09,33,15.80
2015,09,22,09,34,12.90
2015,09,22,09,35,11.50
2015,09,22,09,36,7.70
2015,09,22,09,37,9.40
2015,09,22,09,38,13.40
2015,09,22,09,39,10.70
2015,09,22,09,40,10.40
2015,09,22,09,41,9.60
2015,09,22,09,42,10.50
2015,09,22,09,43,11.50
2015,09,22,09,44,10.70
2015,09,22,09,45,7.50
2015,09,22,09,46,8.60
2015,09,22,09,47,8.20
2015,09,22,09,48,8.10
2015,09,22,09,49,10.10
2015,09,22,09,50,15.10
2015,09,22,09,51,11.40
2015,09,22,09,52,11.80
2015,09,22,09,53,10.10
2015,09,22,09,54,12.60
2015,09,22,09,55,11.30
2015,09,22,09,56,10.20
2015,09,22,09,57,10.50
2015,09,22,09,58,8.50
2015,09,22,09,59,6.40
2015,09,22,10,00,8.20
2015,09,22,10,01,7.20
2015,09,22,10,02,7.70
2015,09,22,10,03,5.60
2015,09,22,10,04,7.40
2015,09,22,10,05,9.10
2015,09,22,10,06,9.50
2015,09,22,10,07,9.30
2015,09,22,10,08,7.40
2015,09,22,10,09,7.80
2015,09,22,10,10,6.20
2015,09,22,10,11,6.40
2015,09,22,10,12,5.70
2015,09,22,10,13,11.10
2015,09,22,10,14,6.80
2015,09,22,10,15,8.50
2015,09,22,10,16,10.00
2015,09,22,10,17,11.60
2015,09,22,10,18,10.50
2015,09,22,10,19,15.40
2015,09,22,10,20,11.30
2015,09,22,10,21,8.10
2015,09,22,10,22,8.50
2015,09,22,10,23,10.90
2015,09,22,10,24,13.80
2015,09,22,10,25,8.90
2015,09,22,10,26,12.30
2015,09,22,10,27,8.20
2015,09,22,10,28,6.70
2015,09,22,10,29,11.10
2015,09,22,10,30,10.00
2015,09,22,10,31,6.50
2015,09,22,10,32,13.80
2015,09,22,10,33,11.40
2015,09,22,10,34,13.00
2015,09,22,10,35,13.40
2015,09,22,10,36,13.90
2015,09,22,10,37,9.30
2015,09,22,10,38,8.10
2015,09,22,10,39,8.10
2015,09,22,10,40,9.10
2015,09,22,10,41,17.90
2015,09,22,10,42,16.50
2015,09,22,10,43,15.10
2015,09,22,10,44,15.90
2015,09,22,10,45,12.00
2015,09,22,10,46,16.00
2015,09,22,10,47,19.40
2015,09,22,10,48,16.60
2015,09,22,10,49,12.20
2015,09,22,10,50,12.70
2015,09,22,10,51,16.20
2015,09,22,10,52,12.50
2015,09,22,10,53,14.30
2015,09,22,10,54,14.60
2015,09,22,10,55,13.00
2015,09,22,10,56,14.60
2015,09,22,10,57,13.90
2015,09,22,10,58,13.60
2015,09,22,10,59,11.90
2015,09,22,11,00,13.80
2015,09,22,11,01,13.60
2015,09,22,11,02,11.40
2015,09,22,11,03,16.20
2015,09,22,11,04,10.30
2015,09,22,11,05,7.40
2015,09,22,11,06,14.30
2015,09,22,11,07,16.30
2015,09,22,11,08,14.10
2015,09,22,11,09,11.80
2015,09,22,11,10,12.10
2015,09,22,11,11,11.70
2015,09,22,11,12,14.90
2015,09,22,11,13,15.00
2015,09,22,11,14,12.10
2015,09,22,11,15,14.10
2015,09,22,11,16,15.20
2015,09,22,11,17,13.40
2015,09,22,11,18,15.30
2015,09,22,11,19,11.80
2015,09,22,11,20,13.70
2015,09,22,11,21,12.60
2015,09,22,11,22,15.20
2015,09,22,11,23,15.60
2015,09,22,11,24,13.60
2015,09,22,11,25,13.80
2015,09,22,11,26,10.60
2015,09,22,11,27,6.90
2015,09,22,11,28,9.90
2015,09,22,11,29,10.60
2015,09,22,11,30,10.40
2015,09,22,11,31,10.00
2015,09,22,11,32,9.50
2015,09,22,11,33,9.70
2015,09,22,11,34,9.30
2015,09,22,11,35,10.10
2015,09,22,11,36,8.40
2015,09,22,11,37,9.10
2015,09,22,11,38,11.90
2015,09,22,11,39,8.20
2015,09,22,11,40,11.30
2015,09,22,11,41,8.30
2015,09,22,11,42,10.20
2015,09,22,11,43,8.50
2015,09,22,11,44,7.40
2015,09,22,11,45,10.90
2015,09,22,11,46,13.00
2015,09,22,11,47,11.00
2015,09,22,11,48,11.20
2015,09,22,11,49,11.50
2015,09,22,11,50,11.90
2015,09,22,11,51,10.30
2015,09,22,11,52,14.30
2015,09,22,11,53,10.80
2015,09,22,11,54,13.80
2015,09,22,11,55,13.00
2015,09,22,11,56,8.00
2015,09,22,11,57,8.70
2015,09,22,11,58,7.00
2015,09,22,11,59,8.60
2015,09,22,12,00,13.60
2015,09,22,12,01,11.10
2015,09,22,12,02,10.10
2015,09,22,12,03,11.10
2015,09,22,12,04,13.50
2015,09,22,12,05,8.90
2015,09,22,12,06,13.50
2015,09,22,12,07,10.40
2015,09,22,12,08,8.80
2015,09,22,12,09,12.10
2015,09,22,12,10,12.30
2015,09,22,12,11,7.80
2015,09,22,12,12,10.80
2015,09,22,12,13,8.60
2015,09,22,12,14,8.00
2015,09,22,12,15,10.10
2015,09,22,12,16,13.40
2015,09,22,12,17,10.20
2015,09,22,12,18,10.90
2015,09,22,12,19,11.50
2015,09,22,12,20,10.60
2015,09,22,12,21,10.90
2015,09,22,12,22,10.50
2015,09,22,12,23,10.20
2015,09,22,12,24,13.20
2015,09,22,12,25,12.70
2015,09,22,12,26,10.10
2015,09,22,12,27,13.00
2015,09,22,12,28,10.40
2015,09,22,12,29,9.00
2015,09,22,12,30,12.70
2015,09,22,12,31,12.30
2015,09,22,12,32,13.70
2015,09,22,12,33,10.10
2015,09,22,12,34,11.80
2015,09,22,12,35,11.40
2015,09,22,12,36,11.00
2015,09,22,12,37,9.40
2015,09,22,12,38,10.00
2015,09,22,12,39,11.90
2015,09,22,12,40,10.60
2015,09,22,12,41,10.20
2015,09,22,12,42,12.80
2015,09,22,12,43,13.80
2015,09,22,12,44,14.10
2015,09,22,12,45,11.40
2015,09,22,12,46,8.10
2015,09,22,12,47,12.90
2015,09,22,12,48,13.80
2015,09,22,12,49,13.00
2015,09,22,12,50,11.60
2015,09,22,12,51,12.80
2015,09,22,12,52,7.90
2015,09,22,12,53,17.10
2015,09,22,12,54,15.00
2015,09,22,12,55,13.80
2015,09,22,12,56,7.10
2015,09,22,12,57,7.60
2015,09,22,12,58,8.50
2015,09,22,12,59,9.50
2015,09,22,13,00,9.20
2015,09,22,13,01,9.70
2015,09,22,13,02,9.80
2015,09,22,13,03,11.20
2015,09,22,13,04,8.90
2015,09,22,13,05,14.60
2015,09,22,13,06,11.20
2015,09,22,13,07,11.90
2015,09,22,13,08,15.70
2015,09,22,13,09,11.70
2015,09,22,13,10,12.40
2015,09,22,13,11,10.90
2015,09,22,13,12,12.50
2015,09,22,13,13,14.40
2015,09,22,13,14,12.20
2015,09,22,13,15,9.00
2015,09,22,13,16,11.00
2015,09,22,13,17,11.70
2015,09,22,13,18,10.70
2015,09,22,13,19,13.60
2015,09,22,13,20,12.10
2015,09,22,13,21,12.80
2015,09,22,13,22,19.00
2015,09,22,13,23,12.80
2015,09,22,13,24,12.40
2015,09,22,13,25,15.30
2015,09,22,13,26,16.30
2015,09,22,13,27,18.70
2015,09,22,13,28,15.60
2015,09,22,13,29,16.80
2015,09,22,13,30,18.30
2015,09,22,13,31,14.90
2015,09,22,13,32,15.40
2015,09,22,13,33,13.50
2015,09,22,13,34,15.00
2015,09,22,13,35,15.20
2015,09,22,13,36,14.60
2015,09,22,13,37,17.10
2015,09,22,13,38,15.90
2015,09,22,13,39,15.50
2015,09,22,13,40,13.60
2015,09,22,13,41,15.70
2015,09,22,13,42,17.00
2015,09,22,13,43,14.20
2015,09,22,13,44,14.30
2015,09,22,13,45,14.70
2015,09,22,13,46,13.00
2015,09,22,13,47,14.60
2015,09,22,13,48,16.50
2015,09,22,13,49,16.90
2015,09,22,13,50,15.90
2015,09,22,13,51,16.00
2015,09,22,13,52,14.10
2015,09,22,13,53,16.80
2015,09,22,13,54,16.70
2015,09,22,13,55,15.80
2015,09,22,13,56,10.80
2015,09,22,13,57,15.50
2015,09,22,13,58,16.00
2015,09,22,13,59,15.90
2015,09,22,14,00,16.50
2015,09,22,14,01,17.10
2015,09,22,14,02,15.40
2015,09,22,14,03,16.90
2015,09,22,14,04,17.80
2015,09,22,14,05,18.00
2015,09,22,14,06,16.70
2015,09,22,14,07,18.00
2015,09,22,14,08,14.70
2015,09,22,14,09,15.80
2015,09,22,14,10,19.40
2015,09,22,14,11,18.00
2015,09,22,14,12,14.70
2015,09,22,14,13,16.50
2015,09,22,14,14,18.80
2015,09,22,14,15,12.60
2015,09,22,14,16,15.50
2015,09,22,14,17,14.10
2015,09,22,14,18,17.00
2015,09,22,14,19,16.60
2015,09,22,14,20,13.80
2015,09,22,14,21,11.50
2015,09,22,14,22,15.60
2015,09,22,14,23,14.80
2015,09,22,14,24,12.90
2015,09,22,14,25,11.40
2015,09,22,14,26,12.90
2015,09,22,14,27,12.70
2015,09,22,14,28,14.60
2015,09,22,14,29,16.70
2015,09,22,14,30,14.40
2015,09,22,14,31,16.70
2015,09,22,14,32,16.40
2015,09,22,14,33,18.00
2015,09,22,14,34,13.40
2015,09,22,14,35,11.60
2015,09,22,14,36,12.60
2015,09,22,14,37,11.40
2015,09,22,14,38,13.00
2015,09,22,14,39,9.70
2015,09,22,14,40,9.30
2015,09,22,14,41,10.40
2015,09,22,14,42,10.20
2015,09,22,14,43,13.40
2015,09,22,14,44,16.30
2015,09,22,14,45,18.00
2015,09,22,14,46,15.80
2015,09,22,14,47,14.90
2015,09,22,14,48,12.70
2015,09,22,14,49,14.60
2015,09,22,14,50,16.90
2015,09,22,14,51,17.70
2015,09,22,14,52,18.00
2015,09,22,14,53,17.50
2015,09,22,14,54,17.70
2015,09,22,14,55,17.00
2015,09,22,14,56,15.20
2015,09,22,14,57,18.30
2015,09,22,14,58,18.40
2015,09,22,14,59,18.00
2015,09,22,15,00,19.80
2015,09,22,15,01,14.70
2015,09,22,15,02,15.60
2015,09,22,15,03,17.00
2015,09,22,15,04,15.50
2015,09,22,15,05,15.00
2015,09,22,15,06,17.10
2015,09,22,15,07,15.40
2015,09,22,15,08,15.30
2015,09,22,15,09,15.00
2015,09,22,15,10,14.60
2015,09,22,15,11,14.30
2015,09,22,15,12,12.20
2015,09,22,15,13,11.90
2015,09,22,15,14,13.40
2015,09,22,15,15,12.20
2015,09,22,15,16,10.50
2015,09,22,15,17,12.70
2015,09,22,15,18,9.20
2015,09,22,15,19,7.90
2015,09,22,15,20,7.70
2015,09,22,15,21,9.10
2015,09,22,15,22,6.40
2015,09,22,15,23,8.00
2015,09,22,15,24,8.90
2015,09,22,15,25,8.20
2015,09,22,15,26,9.20
2015,09,22,15,27,11.50
2015,09,22,15,28,8.70
2015,09,22,15,29,9.60
2015,09,22,15,30,9.10
2015,09,22,15,31,10.30
2015,09,22,15,32,6.20
2015,09,22,15,33,4.90
2015,09,22,15,34,6.30
2015,09,22,15,35,6.60
2015,09,22,15,36,4.10
2015,09,22,15,37,7.10
2015,09,22,15,38,5.10
2015,09,22,15,39,3.50
2015,09,22,15,40,4.30
2015,09,22,15,41,7.70
2015,09,22,15,42,9.70
2015,09,22,15,43,10.40
2015,09,22,15,44,10.20
2015,09,22,15,45,9.80
2015,09,22,15,46,7.40
2015,09,22,15,47,10.80
2015,09,22,15,48,8.80
2015,09,22,15,49,4.60
2015,09,22,15,50,6.30
2015,09,22,15,51,6.50
2015,09,22,15,52,7.30
2015,09,22,15,53,4.50
2015,09,22,15,54,8.90
2015,09,22,15,55,7.10
2015,09,22,15,56,10.30
2015,09,22,15,57,7.20
2015,09,22,15,58,8.10
2015,09,22,15,59,9.70
2015,09,22,16,00,9.10
2015,09,22,16,01,10.70
2015,09,22,16,02,11.90
2015,09,22,16,03,12.60
2015,09,22,16,04,10.10
2015,09,22,16,05,9.50
2015,09,22,16,06,9.70
2015,09,22,16,07,8.50
2015,09,22,16,08,5.20
2015,09,22,16,09,8.10
2015,09,22,16,10,6.40
2015,09,22,16,11,8.60
2015,09,22,16,12,6.00
2015,09,22,16,13,5.40
2015,09,22,16,14,9.10
2015,09,22,16,15,8.20
2015,09,22,16,16,9.50
2015,09,22,16,17,9.00
2015,09,22,16,18,9.70
2015,09,22,16,19,6.40
2015,09,22,16,20,6.00
2015,09,22,16,21,9.60
2015,09,22,16,22,8.70
2015,09,22,16,23,8.10
2015,09,22,16,24,7.90
2015,09,22,16,25,5.50
2015,09,22,16,26,3.70
2015,09,22,16,27,5.20
2015,09,22,16,28,4.80
2015,09,22,16,29,7.60
2015,09,22,16,30,7.30
2015,09,22,16,31,5.80
2015,09,22,16,32,6.30
2015,09,22,16,33,6.30
2015,09,22,16,34,5.80
2015,09,22,16,35,5.60
2015,09,22,16,36,5.00
2015,09,22,16,37,5.60
2015,09,22,16,38,6.00
2015,09,22,16,39,3.90
2015,09,22,16,40,4.80
2015,09,22,16,41,4.10
2015,09,22,16,42,3.80
2015,09,22,16,43,3.50
2015,09,22,16,44,5.10
2015,09,22,16,45,5.40
2015,09,22,16,46,5.20
2015,09,22,16,47,3.60
2015,09,22,16,48,6.90
2015,09,22,16,49,5.90
2015,09,22,16,50,5.70
2015,09,22,16,51,5.30
2015,09,22,16,52,4.70
2015,09,22,16,53,4.90
2015,09,22,16,54,3.40
2015,09,22,16,55,4.10
2015,09,22,16,56,3.50
2015,09,22,16,57,4.30
2015,09,22,16,58,5.80
2015,09,22,16,59,6.40
2015,09,22,17,00,5.70
2015,09,22,17,01,4.00
2015,09,22,17,02,4.60
2015,09,22,17,03,4.40
2015,09,22,17,04,5.30
2015,09,22,17,05,5.00
2015,09,22,17,06,5.60
2015,09,22,17,07,4.30
2015,09,22,17,08,4.50
2015,09,22,17,09,5.90
2015,09,22,17,10,5.00
2015,09,22,17,11,5.40
2015,09,22,17,12,4.30
2015,09,22,17,13,3.30
2015,09,22,17,14,4.40
2015,09,22,17,15,3.30
2015,09,22,17,16,4.80
2015,09,22,17,17,5.60
2015,09,22,17,18,5.40
2015,09,22,17,19,4.50
2015,09,22,17,20,5.60
2015,09,22,17,21,4.70
2015,09,22,17,22,4.80
2015,09,22,17,23,5.40
2015,09,22,17,24,5.90
2015,09,22,17,25,4.10
2015,09,22,17,26,5.50
2015,09,22,17,27,4.40
2015,09,22,17,28,4.30
2015,09,22,17,29,6.70
2015,09,22,17,30,5.70
2015,09,22,17,31,5.20
2015,09,22,17,32,5.60
2015,09,22,17,33,4.00
2015,09,22,17,34,4.70
2015,09,22,17,35,2.80
2015,09,22,17,36,3.60
2015,09,22,17,37,3.20
2015,09,22,17,38,3.60
2015,09,22,17,39,3.70
2015,09,22,17,40,2.70
2015,09,22,17,41,5.10
2015,09,22,17,42,3.90
2015,09,22,17,43,5.80
2015,09,22,17,44,3.10
2015,09,22,17,45,2.20
2015,09,22,17,46,0.60
2015,09,22,17,47,3.80
2015,09,22,17,48,4.10
2015,09,22,17,49,5.30
2015,09,22,17,50,4.60
2015,09,22,17,51,3.40
2015,09,22,17,52,1.30
2015,09,22,17,53,2.20